Flag Weather past 2 weeks in Bozeman, Montana, U.S.A.

Now
41 °F

Clear.


Feels Like: 37 °F
Forecast: 39 / 65 °F
Wind: 6 mph from Southwest

Location: Gallatin Field

Current Time: Oct 30, 2014 at 10:19:30 PM

Latest Report: Oct 30, 2014 at 9:56 PM


Visibility: 10 mi

Pressure: 30.17 "Hg

Humidity: 74%

Dew point: 33 °F

Location of BozemanLocation

Historic Weather in Bozeman — Graph

°F

Bozeman temperature yesterday

Maximum temperature yesterday: 58 °F (at 12:56 PM)
Minimum temperature yesterday: 29 °F (at 11:56 PM)
Average temperature yesterday: 45 °F

Past Weeks' High & Low Weather Summary

 TemperatureHumidityPressure
High75 °F (Oct 20, 2:56 PM)100% (Oct 25, 8:56 AM)30.37 "Hg (Oct 25, 8:56 AM)
Low17 °F (Oct 28, 5:56 AM)21% (Oct 20, 2:56 PM)29.65 "Hg (Oct 21, 10:56 AM)
Average44 °F63%30.03 "Hg
* Reported Oct 15 8:56 PM — Oct 30 8:56 PM, Bozeman, Weather by CustomWeather, © 2014

Note: Actual official high and low records may vary slightly from our data, if they occured in-between our weather recording intervals... More about our weather records

Advertising

Bozeman weather history for previous 24 hours

 ConditionsComfort  
Time TempWeatherWind HumidityBarometerVisibility
8:56 PM
Oct 30
43 °FClear.No wind65%30.19 "Hg10 mi
7:56 PM45 °FClear.3 mph60%30.19 "Hg10 mi
6:56 PM43 °FSunny.No wind65%30.21 "Hg10 mi
5:56 PM49 °FSunny.3 mph52%30.21 "Hg10 mi
4:56 PM53 °FSunny.5 mph45%30.21 "Hg10 mi
3:56 PM56 °FSunny.3 mph39%30.22 "Hg10 mi
2:56 PM54 °FPartly sunny.No wind40%30.26 "Hg10 mi
1:56 PM51 °FScattered clouds.No wind42%30.30 "Hg10 mi
12:56 PM49 °FPartly sunny.3 mph48%30.31 "Hg10 mi
11:56 AM46 °FOvercast.No wind56%30.34 "Hg10 mi
10:56 AM40 °FOvercast.No wind73%30.37 "Hg10 mi
9:56 AM39 °FPassing clouds.No wind70%30.36 "Hg10 mi
8:56 AM34 °FPassing clouds.No wind85%30.36 "Hg10 mi
7:56 AM34 °FClear.No wind79%30.32 "Hg10 mi
6:56 AM34 °FClear.No wind79%30.31 "Hg10 mi
5:56 AM33 °FClear.No wind78%30.31 "Hg10 mi
4:56 AM32 °FClear.5 mph82%30.31 "Hg10 mi
3:56 AM30 °FClear.6 mph85%30.30 "Hg10 mi
2:56 AM28 °FClear.8 mph85%30.33 "Hg10 mi
1:56 AM27 °FClear.5 mph85%30.31 "Hg10 mi
12:56 AM34 °FClear.9 mph73%30.27 "Hg10 mi
11:56 PM
Oct 29
29 °FClear.6 mph82%30.31 "Hg10 mi
10:56 PM32 °FClear.9 mph79%30.29 "Hg10 mi
Weather by CustomWeather, © 2014

See weather overviewHow to use our weather pages